Regional Weather Roundup
Issued by NWS

Home | Current Version | Previous Version | Graphics & Text | Print | Product List | Glossary On
Versions: 1 2 3 4 5 6 7 8 9 10 11 12 13 14 15 16 17 18 19 20 21 22 23 24 25 26 27 28 29 30 31 32 33 34 35 36 37 38 39 40 41 42 43 44 45 46 47 48 49 50
000
ASUS43 KIND 250509
RWRIN

WEATHER ROUNDUP FOR INDIANA
NATIONAL WEATHER SERVICE INDIANAPOLIS IN
100 AM EDT MON MAY 25 2015

NOTE: "FAIR" INDICATES FEW OR NO CLOUDS BELOW 12,000 FEET WITH NO
SIGNIFICANT WEATHER AND/OR OBSTRUCTIONS TO VISIBILITY.

* - STATION DOES NOT REPORT WEATHER SUCH AS PRECIPITATION OR FOG.

+ - STATION NOT QUALITY CONTROLLED BY THE NATIONAL WEATHER SERVICE.
    USE DATA WITH CAUTION...ESPECIALLY DEWPOINT AND RELATIVE
    HUMIDITY OBSERVATIONS.

INZ001>003-010>013-019-020-250600-
NORTHWEST INDIANA

CITY           SKY/WX    TMP DP  RH WIND       PRES   REMARKS
GARY /AIRPORT/ CLEAR     77  61  58 S13G20    29.94F
KNOX *+        CLEAR     72  55  56 S12       29.98S
LA PORTE +     PTCLDY    75  60  58 S9G18     29.99S
MICHIGAN CITY+ PTCLDY    73  55  53 S9G16     29.97S
MONTICELLO +   CLEAR     74  61  64 S9        29.99F
RENSSELAER +   PTCLDY    73  61  64 S13G20    29.97F
VALPARAISO     PTCLDY    73  60  63 S9G18     29.97F

$$

LMZ046-743>745-250600-
SOUTHERN LAKE MICHIGAN

STATION/POSITION TIME  TEMP    WIND        PRES    WAVE
                       AIR SEA DIR/SP/G            HT
                 (UTC) (F)     (DEG/KT/KT) (MB)    (FT)
BURNS HARBOR     0500   75     180/ 13/ 20 1014.6S
MICHIGAN CITY    0500   75     150/ 15/ 19   N/A
5NW MICH CITY    0500   69 54  190/ 14/ 17   N/A     1

$$

INZ004-005-014>016-021>024-250600-
NORTH CENTRAL INDIANA

CITY           SKY/WX    TMP DP  RH WIND       PRES   REMARKS
GOSHEN         CLEAR     72  55  55 S15       30.01S
LOGANSPORT +   CLEAR     72  54  53 S9        30.02F
PERU/GRISSOM   CLEAR     71  58  62 S10       30.01F
ROCHESTER +    CLEAR     73  57  56 S9        30.02S
SOUTH BEND     CLEAR     74  56  53 S13       29.99F
WARSAW +       CLEAR     72  55  56 SE3       30.03S

$$

INZ006>009-017-018-025>027-250600-
NORTHEAST INDIANA

CITY           SKY/WX    TMP DP  RH WIND       PRES   REMARKS
ANGOLA *+      CLEAR     72  55  56 S10       30.04F
AUBURN +       PTCLDY    72  52  49 S6        30.06S
FORT WAYNE     PTCLDY    71  55  56 S13       30.06S
HUNTINGTON +   CLEAR     71  55  57 S7        30.04F

$$

INZ028-029-035-036-043>045-051>053-250600-
WEST CENTRAL INDIANA

CITY           SKY/WX    TMP DP  RH WIND       PRES   REMARKS
CRAWFORDSVL +  PTCLDY    71  55  56 S13       30.02F
GREENCASTLE +  MOCLDY    70  55  60 S10       30.04F
LAFAYETTE      PTCLDY    73  60  63 S10G20    29.99F
TERRE HAUTE    MOCLDY    74  61  63 S10       30.01F

$$

INZ030>032-037>040-046>048-054>057-064-065-250600-
CENTRAL INDIANA

CITY           SKY/WX    TMP DP  RH WIND       PRES   REMARKS
CP ATTERBURY + MOCLDY    70  57  64 S8        30.08S
FRANKFORT +    PTCLDY    73  59  61 SE8       30.04F
INDIANAPOLIS   MOCLDY    72  58  61 SE12      30.03F
-EAGLE CREEK   MOCLDY    73  58  59 S8        30.04F
KOKOMO *+      CLEAR     72  55  56 S14       30.03F
MARION +       CLEAR     70  53  55 S10       30.05F
MT COMFORT *+  PTCLDY    72  46  40 S10G17    30.07S
SHELBYVILLE    PTCLDY    74  56  53 S12       30.06F
ZIONSVILLE +   MOCLDY    74  56  52 S10       30.05F

$$

INZ033-034-041-042-049-050-058-059-250600-
EAST CENTRAL INDIANA

CITY           SKY/WX    TMP DP  RH WIND       PRES   REMARKS
MUNCIE         PTCLDY    73  55  53 S9        30.07S

$$

INZ060-061-067>069-081>083-085>088-250600-
SOUTHWEST INDIANA

CITY           SKY/WX    TMP DP  RH WIND       PRES   REMARKS
EVANSVILLE     CLOUDY    76  65  68 S8        30.03F
HUNTINGBURG *+ MOCLDY    75  61  60 S12G20    30.05F
WASHINGTON +   PTCLDY    75  58  56 S16       30.02F

$$

INZ062-063-066-070>080-084-089>092-250600-
SOUTH CENTRAL AND SOUTHEAST INDIANA

CITY           SKY/WX    TMP DP  RH WIND       PRES   REMARKS
BLOOMINGTON    CLOUDY    73  60  63 S10       30.05F
MADISON *+     PTCLDY    73  52  46 S8G17     30.13S
NORTH VERNON + PTCLDY    73  54  49 S12       30.10S
SEYMOUR +      MOCLDY    73  57  56 S10       30.08S

$$




USA.gov is the U.S. government's official web portal to all federal, state and local government web resources and services.